Theta_e
337 334 328 333 329 326 324 323 301 309 305 296 296 298 296 303 303 300 299 301 299 305 308 308 307 309 306 304 306 308 308 306 308 302 299 308 312 314 317 319 322 322 323 324 329 328 327 332 333 334 335 336 337 338 338 338 338 339 339 340 340 341 341 341 341 342 342 342 342 342 343 343 342 341 341 341 341 340 339 339 339 339 340 342 343 345 346 347 347 348 344 347 346 345 345 345 345
335 332 330 334 329 329 317 320 307 301 301 295 296 301 298 301 300 298 297 301 305 305 306 305 306 308 308 308 306 308 308 307 309 307 308 311 312 313 316 318 322 321 322 324 326 326 326 328 332 332 333 334 335 336 336 336 337 337 338 338 338 339 338 338 339 339 339 339 339 340 340 339 339 338 338 338 338 338 337 336 336 337 338 339 341 342 343 343 344 346 346 346 344 342 342 344 344
332 329 328 327 327 324 319 317 300 298 297 294 297 298 303 298 297 299 302 304 306 307 307 306 307 307 307 309 305 304 302 311 309 309 307 311 308 308 316 319 319 321 323 323 326 325 325 328 332 331 332 333 334 334 334 335 335 335 336 336 336 336 336 336 336 336 337 337 337 337 337 336 336 335 335 336 336 336 335 334 334 334 335 336 337 338 339 340 341 341 341 342 341 338 340 340 339
329 332 327 329 319 322 311 308 303 297 294 294 296 302 300 299 301 303 305 306 305 305 306 305 303 306 306 303 306 308 308 307 310 308 305 307 309 311 313 317 319 318 319 323 324 324 324 328 330 331 331 332 333 332 333 333 333 333 333 333 334 334 334 334 334 334 334 334 334 334 333 333 333 332 332 332 333 333 332 332 331 331 332 333 334 335 336 336 337 337 337 337 337 335 335 336 336
327 330 330 324 322 314 311 306 302 301 296 298 295 300 300 301 304 304 304 304 305 304 306 305 303 307 307 306 307 303 304 308 309 313 308 310 312 312 313 317 315 316 317 321 323 322 322 329 329 330 330 331 331 331 331 330 331 331 331 331 331 331 331 332 332 332 332 331 331 330 330 330 329 329 329 329 330 330 330 329 329 329 329 330 331 331 333 333 334 334 334 334 334 333 332 332 332
326 325 333 328 315 316 312 301 300 299 302 302 297 298 304 303 304 304 304 305 305 304 305 304 303 303 304 307 306 304 311 305 309 309 309 307 310 313 313 315 312 313 315 320 321 320 321 326 327 329 329 330 329 329 329 329 329 329 329 329 329 329 329 329 329 329 328 328 328 327 327 326 326 326 325 326 327 327 327 327 327 326 326 327 328 329 330 330 331 331 331 330 331 330 330 329 329
327 323 323 322 319 315 303 299 298 298 301 302 301 300 300 304 305 304 302 302 305 304 306 305 306 305 302 304 305 307 310 313 309 311 312 309 310 311 312 307 310 312 315 318 318 318 320 325 326 327 327 327 327 327 327 327 327 327 326 326 326 326 326 326 326 326 326 325 325 325 325 324 324 324 325 324 325 326 326 325 325 325 325 325 325 326 327 328 328 329 328 327 327 327 326 326 325
327 319 318 309 306 304 298 296 296 297 300 304 303 302 303 305 305 304 302 301 300 300 302 306 306 303 303 307 301 308 309 310 309 310 308 307 308 309 310 306 307 309 313 315 316 316 321 324 325 325 325 325 325 325 326 325 325 325 325 325 325 325 324 324 323 323 323 323 324 325 324 323 323 323 323 323 323 324 324 323 323 323 323 323 324 324 324 325 325 326 325 325 324 323 323 323 323
323 318 320 311 302 306 299 297 298 302 301 302 302 306 310 306 305 304 302 303 302 303 302 304 304 298 302 303 302 305 306 310 309 311 306 306 306 306 305 306 306 308 311 313 314 314 315 321 323 324 324 324 325 325 324 324 324 323 324 324 324 323 323 323 323 323 323 323 323 323 323 322 321 321 321 321 322 322 323 323 322 322 322 323 323 322 323 323 324 324 324 324 323 322 322 322 322
318 315 307 305 305 297 298 298 298 300 300 301 301 302 304 305 304 304 302 301 302 303 304 305 303 300 302 301 300 304 304 308 308 307 306 305 305 304 304 306 308 308 308 310 311 311 312 317 320 321 322 323 323 323 323 323 323 322 323 323 322 322 322 321 321 321 321 321 321 321 321 320 320 320 321 320 321 321 322 322 322 321 321 322 322 322 322 322 323 323 323 322 322 322 322 322 321
310 316 314 304 300 295 295 295 297 303 300 302 302 305 305 304 304 303 303 302 304 302 303 305 302 301 302 302 303 307 307 306 304 303 305 304 304 303 301 305 306 306 306 308 309 310 309 310 316 318 319 320 321 321 321 321 321 321 321 321 321 320 320 320 319 319 319 319 319 319 319 319 318 318 318 318 318 319 320 320 320 320 320 320 320 320 320 320 320 321 320 320 319 319 320 320 319
307 307 310 299 295 295 296 296 300 301 302 302 300 303 304 305 305 302 302 301 302 302 302 303 301 304 300 301 303 304 304 304 304 304 304 303 301 303 303 302 306 306 307 306 307 307 307 308 308 314 316 317 317 317 318 318 319 318 318 318 318 318 318 318 317 317 316 316 316 316 316 316 316 316 315 315 315 315 317 317 318 318 317 318 318 317 318 318 319 319 319 318 318 318 319 318 318
309 311 304 299 297 297 298 298 298 299 299 300 301 303 303 304 302 302 302 303 303 302 302 304 305 305 300 300 302 304 302 303 305 304 303 300 301 301 303 302 303 305 306 305 304 304 306 305 307 308 311 313 313 314 314 315 315 316 316 316 316 316 316 316 315 314 314 313 313 312 312 312 312 313 313 312 312 312 313 315 315 315 315 316 316 316 316 316 316 317 317 317 317 318 318 318 318
311 311 306 298 302 299 298 298 299 296 297 300 301 303 304 303 303 304 303 301 302 302 305 307 306 305 301 302 298 299 301 305 304 303 302 301 301 301 301 301 304 303 305 304 302 303 302 303 304 305 306 305 306 308 311 312 312 313 313 313 313 312 312 312 312 311 311 310 309 309 308 308 309 309 310 310 308 308 309 310 312 313 313 314 314 314 314 314 314 315 315 315 315 315 315 315 316
309 311 305 302 297 297 298 296 298 298 296 300 302 302 303 305 305 305 303 301 301 303 306 308 307 301 295 299 299 301 302 305 303 303 302 301 301 300 302 302 303 303 302 301 301 300 300 301 302 304 305 304 305 303 302 307 310 310 311 311 311 310 309 308 308 308 307 306 306 306 307 307 306 306 306 306 307 305 305 305 309 311 311 311 312 312 312 312 313 313 313 313 313 313 313 313 313
313 309 305 299 294 296 298 300 301 298 297 299 301 303 301 303 304 303 303 302 304 306 306 300 306 301 302 302 304 304 304 304 302 302 301 300 301 301 301 301 299 300 300 300 300 300 300 301 301 301 302 303 303 302 302 301 306 308 308 308 308 307 307 306 306 305 304 304 303 304 306 307 307 304 305 304 304 304 303 303 306 309 309 309 310 311 310 310 311 311 311 311 311 312 310 311 312
313 311 300 297 294 296 298 299 300 295 301 300 302 302 299 300 304 303 301 303 302 302 302 304 302 306 303 301 304 304 304 303 303 300 300 298 298 297 298 297 297 298 301 299 299 299 300 300 300 300 301 302 302 301 300 300 303 304 304 304 305 305 305 305 304 305 306 305 305 307 306 302 300 299 298 300 306 303 304 303 304 306 307 307 308 309 308 308 310 310 310 310 310 309 307 307 310
312 302 298 295 297 297 301 300 300 302 299 299 299 301 301 299 300 302 303 302 301 302 301 303 304 303 304 301 304 304 302 300 300 298 297 297 297 296 296 296 296 296 297 297 299 299 299 300 300 300 300 301 302 303 303 303 303 304 300 301 301 302 303 305 302 301 306 301 305 301 299 299 298 296 298 302 300 302 302 304 304 304 305 305 305 307 306 307 308 308 308 308 307 306 305 301 302
306 301 300 295 299 301 301 302 301 299 299 302 302 300 301 300 300 301 298 298 299 299 300 301 301 302 300 301 302 300 300 299 298 298 297 297 297 296 296 296 295 296 296 297 297 299 298 299 299 300 300 300 301 301 303 302 300 300 301 299 301 303 302 301 301 301 300 300 300 297 299 298 299 298 297 301 301 304 302 302 304 303 303 304 303 304 304 305 305 305 306 305 304 304 299 298 298
305 302 296 298 304 301 304 304 303 303 302 301 301 301 300 301 301 301 298 297 299 298 298 299 299 300 299 299 300 299 299 298 298 298 297 297 297 297 296 296 295 295 297 297 296 299 298 298 299 299 299 300 300 300 302 300 299 299 299 300 300 300 300 300 300 300 299 299 300 297 297 299 298 297 306 305 304 298 299 303 304 304 302 304 301 302 303 303 303 303 303 303 303 299 296 297 297
304 300 297 299 302 298 302 303 304 303 302 301 300 302 299 300 301 299 299 296 297 299 302 301 300 301 302 299 300 299 298 298 298 298 297 297 298 298 297 297 296 296 297 297 298 298 297 299 298 299 299 299 299 299 300 298 299 298 299 298 299 298 299 299 298 298 299 299 298 297 298 299 298 297 297 296 296 297 295 295 295 295 296 295 302 294 295 296 296 295 295 297 295 295 295 295 296
307 301 302 302 302 299 302 302 301 301 301 300 299 298 299 303 301 299 298 295 296 299 302 303 304 304 303 299 300 299 298 297 297 297 297 297 298 297 297 297 297 297 298 297 297 297 297 298 298 298 299 299 299 298 299 299 300 297 297 297 297 298 300 297 298 298 297 297 297 297 297 297 296 296 296 295 295 295 294 294 294 294 293 294 295 293 294 293 293 293 293 294 293 294 294 295 295
297 300 302 303 303 300 303 302 301 299 300 298 298 300 302 300 299 300 299 298 301 304 303 304 304 305 305 302 300 298 297 297 297 297 298 297 298 298 298 297 297 296 297 296 297 296 297 298 298 298 298 299 299 298 298 297 298 298 298 297 297 297 297 297 295 295 296 297 297 296 297 295 295 294 294 294 294 294 294 293 293 293 292 293 293 292 293 293 292 291 291 292 292 293 293 294 294
300 297 301 301 303 301 302 301 298 298 299 299 301 299 298 298 296 300 299 301 303 304 304 303 303 303 304 301 300 299 298 298 298 299 299 299 298 298 298 297 297 296 296 297 296 296 297 297 298 298 298 298 298 298 296 296 297 298 298 298 297 298 297 296 295 295 297 295 296 295 296 294 293 293 293 292 293 293 293 294 293 293 292 292 293 292 292 290 290 290 291 291 292 292 292 293 293
298 298 300 301 301 301 302 299 297 298 299 299 301 297 297 299 298 299 299 302 303 303 304 302 302 303 302 300 300 300 299 299 299 299 300 299 300 300 300 298 297 297 296 297 296 296 297 298 298 297 297 298 298 297 295 296 296 297 295 294 295 298 296 296 294 296 295 294 295 295 295 293 293 293 292 292 292 292 293 293 292 292 292 292 292 290 291 290 290 290 290 290 291 291 290 291 292
301 300 301 302 301 302 301 300 299 298 299 299 297 297 298 299 301 298 300 302 303 303 303 302 301 300 301 301 300 300 300 299 300 299 299 300 300 300 299 298 297 296 297 297 296 295 296 297 297 296 297 298 297 296 295 296 296 295 295 296 294 297 295 295 295 294 293 293 293 294 294 293 292 291 292 291 291 292 292 292 291 291 291 291 290 290 290 289 289 289 290 290 290 290 290 291 292
301 300 300 299 301 301 302 300 300 300 299 298 296 296 297 299 298 294 301 303 303 303 302 303 300 300 300 301 301 301 300 300 300 301 300 299 299 299 299 299 297 296 297 296 296 295 296 296 296 296 297 298 296 295 295 295 296 295 296 295 294 294 295 295 295 294 293 292 293 293 293 292 293 292 291 291 291 291 291 290 290 291 290 290 290 289 290 290 289 289 290 290 290 290 290 290 291
301 300 298 298 299 300 301 301 300 299 297 299 298 296 298 298 297 296 300 300 302 301 302 302 301 299 299 300 300 301 301 301 301 301 299 298 299 299 299 299 298 296 296 296 296 296 296 296 296 296 296 297 296 295 296 295 295 295 296 294 294 295 295 293 293 293 293 292 293 293 292 291 292 292 292 291 290 290 290 290 290 290 289 290 290 289 289 290 290 290 291 291 291 290 290 290 291
300 298 294 297 299 298 300 299 300 300 298 299 299 295 294 295 294 299 301 301 301 300 300 301 301 301 299 299 300 300 300 301 301 300 300 300 300 300 299 300 299 297 297 297 296 296 295 295 295 295 296 296 295 295 296 295 295 296 295 294 295 296 294 294 292 292 292 293 292 292 291 292 291 291 291 291 291 289 290 290 289 290 290 290 289 289 289 289 289 288 289 290 289 289 289 289 292
300 298 295 296 296 295 300 301 301 298 298 299 298 286 292 294 298 300 302 301 300 299 299 299 300 300 299 299 299 299 300 300 300 301 301 301 300 300 299 300 299 298 296 297 296 295 296 296 296 296 295 296 295 296 296 294 295 294 294 294 295 294 292 292 293 292 292 292 292 291 291 290 290 290 290 290 290 289 289 289 289 289 289 289 289 289 288 288 287 288 288 288 290 289 288 288 288
294 298 298 291 290 291 300 301 300 297 298 298 298 288 291 296 298 300 302 301 299 298 298 298 299 300 299 299 299 299 299 300 301 301 302 302 301 300 300 299 299 298 297 296 296 295 296 295 296 295 296 295 296 296 295 294 294 294 293 293 293 293 293 292 291 291 290 291 291 290 291 291 290 290 290 289 289 288 288 288 288 288 289 288 287 288 287 287 288 288 287 287 287 287 287 288 288
296 293 289 293 290 293 298 300 299 296 296 298 296 288 291 296 298 300 302 300 300 297 297 298 299 299 299 299 299 299 299 300 301 301 302 302 302 300 300 299 299 298 297 296 296 296 295 294 295 294 295 295 295 295 294 294 294 293 293 294 292 293 291 292 290 291 291 289 290 290 291 290 290 290 289 289 288 288 287 287 287 288 288 287 288 287 288 287 287 288 287 287 285 285 287 286 286
296 292 290 291 293 294 296 297 298 299 295 296 296 290 293 294 297 298 299 299 298 297 297 298 299 299 299 299 298 299 299 299 300 300 301 302 302 301 300 299 298 298 297 296 296 295 294 294 295 294 294 294 294 294 294 293 293 292 292 292 292 292 290 290 290 291 291 290 289 290 290 290 289 290 289 288 287 287 287 286 287 288 288 287 287 287 286 288 286 288 286 288 287 285 285 285 285
292 294 291 294 293 294 292 295 296 298 295 292 295 292 293 295 296 297 298 298 297 296 297 298 299 299 299 299 298 298 298 298 298 299 300 301 301 301 300 300 299 298 297 296 296 295 294 294 294 294 294 294 294 294 294 293 293 292 291 291 293 291 291 291 290 290 290 289 289 289 290 289 290 289 288 288 287 287 286 286 287 287 287 287 287 286 285 286 286 286 285 286 286 285 284 284 284
291 291 289 290 293 295 294 292 294 295 295 293 292 291 293 295 297 298 298 297 297 297 297 298 299 299 300 300 299 298 298 298 299 299 300 300 300 300 299 299 298 298 297 296 296 295 294 294 294 294 294 293 293 294 293 292 292 291 290 291 290 290 290 290 289 289 289 289 288 290 290 289 290 289 288 288 286 286 286 286 286 287 286 286 286 285 285 286 286 285 285 284 285 285 284 284 284
293 293 292 292 291 292 293 297 295 296 293 292 292 291 292 294 296 298 299 300 298 298 298 299 299 300 300 300 300 300 299 299 300 299 300 300 300 300 298 298 298 297 296 296 295 295 294 294 293 294 294 294 293 293 293 291 290 290 289 289 288 289 289 289 290 288 289 288 290 290 289 288 288 288 288 287 286 286 285 285 285 286 286 285 285 284 284 284 284 284 284 284 284 284 285 285 285
296 295 294 293 292 293 296 297 295 296 293 292 292 293 293 295 296 298 299 299 298 298 298 298 298 299 300 299 300 300 300 299 299 300 299 299 299 299 297 297 296 296 295 294 295 294 294 294 293 292 293 293 293 292 291 290 289 288 288 288 288 288 289 289 289 289 289 288 289 289 289 288 288 288 288 287 286 287 285 285 285 285 285 285 284 284 285 285 285 284 284 284 284 283 283 284 284
296 295 293 293 292 291 295 296 294 295 292 290 293 293 293 295 297 298 299 298 298 298 298 299 299 300 300 300 299 300 300 300 300 298 298 298 298 297 296 296 295 294 294 294 294 294 294 294 293 293 293 293 292 292 292 290 290 289 289 288 288 289 288 288 287 287 288 290 289 289 288 288 288 287 287 286 286 285 285 284 284 284 285 284 284 285 285 286 284 283 284 282 284 283 282 283 284
295 293 292 290 291 294 296 295 293 294 293 289 292 291 293 295 296 298 298 298 299 300 300 300 300 299 300 300 299 299 298 298 298 297 298 298 297 297 295 295 295 295 294 294 294 293 293 293 293 293 293 292 292 292 291 290 290 290 289 289 289 288 289 289 288 288 289 288 288 288 288 288 288 287 287 287 286 286 284 284 283 284 284 284 284 283 283 283 283 283 283 282 281 282 283 284 284
293 291 288 288 292 291 288 293 293 292 291 289 290 290 292 295 297 297 299 299 300 301 301 301 301 300 300 300 300 299 298 297 296 296 296 296 296 295 294 294 294 294 293 293 293 293 293 293 293 293 293 292 292 292 292 291 291 290 290 290 290 289 288 289 289 289 288 288 287 288 287 287 287 287 286 286 286 285 284 284 283 283 283 284 283 282 282 282 282 282 283 283 282 280 280 281 284
293 293 291 290 291 293 292 292 291 293 292 293 289 288 289 292 292 294 297 299 299 300 300 300 300 301 302 302 301 301 299 298 297 296 295 295 294 294 294 294 294 293 293 293 293 293 293 293 293 293 293 292 292 292 291 291 291 290 290 289 288 288 288 286 286 285 287 287 287 286 286 287 287 286 286 286 286 285 285 284 283 283 283 283 283 282 281 281 282 282 282 282 281 280 279 280 282
291 294 294 293 294 293 293 295 294 290 289 290 291 284 285 290 293 294 296 294 295 297 297 298 298 299 300 299 300 301 301 299 298 297 296 295 295 294 293 293 293 293 293 293 293 293 293 293 293 293 292 292 291 291 291 291 290 289 288 286 285 285 284 284 284 285 285 286 286 286 287 287 287 286 285 285 285 285 284 284 283 283 282 283 283 282 282 282 281 281 282 282 281 282 281 280 280
288 290 296 296 294 294 293 293 292 284 282 291 293 282 283 288 290 292 293 292 294 295 296 297 298 299 299 298 299 300 301 299 298 298 296 294 294 293 293 293 292 292 293 293 292 292 292 292 293 293 292 292 292 291 291 291 290 289 288 287 287 286 285 285 286 286 286 286 286 286 286 286 286 286 285 285 285 284 284 284 283 283 282 282 283 281 281 281 281 281 282 282 282 283 282 280 279
288 292 294 295 294 293 293 293 291 288 291 292 291 289 283 284 289 292 294 292 293 293 295 296 298 298 298 298 298 299 301 300 299 298 297 295 294 294 293 293 293 293 293 293 292 292 292 292 292 292 292 292 291 291 291 291 289 288 287 287 287 286 285 285 286 286 287 286 286 286 285 285 286 285 285 284 284 284 284 283 283 282 282 282 282 281 281 281 282 283 282 282 282 282 281 280 279
291 292 295 293 294 294 293 290 287 286 284 283 285 290 282 283 287 293 294 290 291 292 293 295 296 297 298 299 298 299 300 301 300 298 297 295 295 294 294 293 293 293 293 293 292 292 292 292 292 292 292 291 291 291 290 290 290 288 288 287 286 286 286 286 286 287 287 287 285 285 285 285 285 285 284 284 284 284 284 282 282 282 281 281 282 282 281 281 280 280 280 280 280 281 281 281 280
294 294 294 293 293 291 292 286 286 284 282 281 284 289 281 283 289 288 290 291 291 292 294 296 296 297 298 299 298 300 299 299 300 300 298 296 296 295 295 294 293 293 293 293 292 292 291 292 291 291 291 291 291 290 290 290 289 289 287 287 286 285 286 286 286 286 285 285 284 284 284 284 284 284 284 284 283 283 283 282 282 281 281 281 282 280 280 280 280 280 280 280 281 280 281 281 280
294 294 294 291 291 286 287 286 284 282 279 282 286 289 286 281 287 287 288 289 292 293 293 295 295 296 296 298 300 300 300 300 299 299 298 297 296 295 295 294 293 293 292 292 292 291 291 291 291 290 291 291 291 290 290 289 289 288 287 287 286 286 286 286 285 284 284 283 283 283 283 283 283 283 283 283 283 282 282 282 281 281 281 281 281 280 280 280 280 280 280 281 281 280 280 280 280
294 289 287 287 285 285 283 283 283 277 279 283 286 288 288 279 281 289 293 294 295 294 293 294 295 296 297 298 298 301 300 299 299 298 297 296 295 294 294 293 293 292 292 291 291 291 291 291 291 290 290 290 290 290 289 289 288 288 287 287 286 286 287 286 285 284 284 283 283 283 283 282 282 282 282 282 282 282 282 281 281 280 280 280 279 280 280 280 280 280 279 279 279 279 279 279 279
292 287 286 281 280 282 278 279 275 276 279 282 285 288 284 284 289 291 292 292 294 295 295 295 296 296 296 298 299 301 299 299 299 297 297 296 295 294 293 293 292 292 291 291 291 291 291 290 290 290 289 290 290 290 289 289 288 288 287 287 287 287 287 286 285 284 284 283 283 282 282 282 281 281 281 280 281 281 281 280 280 280 279 280 280 279 279 280 279 279 278 278 278 278 278 278 277
288 286 283 280 277 276 275 276 279 280 283 284 284 288 284 288 289 294 293 292 295 296 296 296 296 296 296 298 300 300 298 298 298 297 297 296 295 294 294 293 292 292 291 291 291 291 291 291 290 290 290 290 289 289 289 288 288 288 288 287 287 287 286 286 285 285 284 284 283 283 282 282 281 281 280 280 280 281 280 280 280 279 279 279 280 279 278 278 278 278 278 278 278 278 278 277 277
288 289 287 285 282 278 273 276 276 278 281 282 284 280 278 278 284 294 297 297 295 296 297 296 295 295 297 297 299 299 297 296 298 297 297 297 296 295 294 293 293 292 291 291 291 291 290 290 290 289 289 289 289 289 289 288 288 288 287 287 287 287 287 286 285 285 284 283 283 283 282 282 281 281 281 280 281 280 280 280 279 279 279 278 278 278 280 278 278 278 278 277 278 277 277 277 277
286 289 290 284 283 285 281 283 281 279 279 279 278 279 281 285 291 293 297 298 297 296 297 295 295 296 295 298 299 298 298 298 297 297 297 296 296 295 294 293 293 292 291 291 291 291 290 290 290 290 289 289 289 288 288 288 288 287 287 286 287 287 286 286 285 285 284 284 283 283 282 281 280 280 280 280 280 280 279 278 278 278 278 277 278 277 277 277 276 276 276 276 276 279 277 276 276
285 288 283 286 290 287 282 283 284 280 279 280 283 283 287 291 293 294 294 293 294 295 295 294 294 297 296 297 298 297 298 297 297 297 297 296 296 295 295 294 293 292 292 291 291 291 291 290 290 289 289 289 289 288 288 288 287 287 286 286 286 286 286 285 284 283 283 283 282 281 281 280 280 279 280 279 279 278 278 278 277 277 277 277 277 277 276 276 276 276 276 276 276 276 276 276 276
287 281 284 291 291 288 284 277 280 278 276 280 283 281 283 282 282 289 292 292 293 294 294 295 296 297 295 296 298 298 298 298 298 298 298 297 297 296 296 295 294 293 292 292 291 291 291 291 290 289 289 289 289 288 288 287 287 286 286 286 286 285 285 284 283 283 282 282 281 280 280 279 279 279 279 279 278 277 277 278 277 276 276 276 276 276 276 276 276 276 276 276 276 276 276 276 276
286 284 290 285 280 278 282 281 273 274 275 277 281 282 283 285 286 289 287 290 292 293 294 295 295 296 294 294 296 297 297 297 297 297 298 297 297 296 296 295 295 294 293 292 292 291 291 290 290 290 289 289 289 288 288 287 287 287 286 285 285 284 284 283 283 282 281 281 280 279 279 278 278 278 278 277 277 276 276 276 276 276 276 276 276 276 276 275 275 275 275 275 275 275 275 275 275
290 289 284 287 282 281 279 281 280 279 277 277 278 282 281 289 289 290 290 291 292 293 293 294 295 295 295 295 296 296 298 299 298 297 297 298 297 296 296 295 294 294 293 292 291 291 290 290 290 289 289 289 288 287 287 286 286 286 285 285 284 284 283 282 282 281 280 280 279 279 278 277 277 278 277 277 276 276 276 275 276 276 276 275 275 275 275 275 275 275 274 275 275 274 274 274 274
283 283 280 284 282 284 282 282 280 280 276 277 277 278 283 287 291 291 291 293 293 292 293 294 295 295 295 295 296 296 297 298 299 298 298 297 297 296 295 295 295 293 292 291 291 290 290 289 289 289 288 288 287 287 286 286 286 285 284 284 283 283 282 282 280 280 280 279 278 278 278 277 277 277 276 276 276 276 276 276 275 275 275 275 274 274 274 274 274 274 274 274 274 274 273 273 273
288 287 285 286 283 279 278 278 284 281 280 277 278 278 285 291 294 292 291 292 293 293 294 294 294 295 295 294 294 295 295 297 299 299 298 298 296 296 295 293 290 291 290 290 291 289 288 288 289 288 288 287 287 286 286 285 285 285 284 283 282 282 281 281 280 279 279 278 278 278 277 277 276 276 276 276 275 275 275 275 275 274 274 274 274 274 273 274 273 273 273 274 273 273 273 272 272
Wind_Speed
6 6 6 6 4 3 3 2 2 2 1 5 5 6 0 4 3 4 2 3 1 2 3 2 3 5 2 2 4 7 7 3 1 1 2 1 3 3 2 0 2 3 3 3 7 8 7 7 10 11 9 9 10 11 11 11 10 11 10 11 11 11 12 12 12 12 13 14 14 13 14 15 15 15 16 16 15 15 15 16 16 16 16 16 16 17 18 18 18 17 15 16 16 16 16 16 15
7 4 4 2 3 2 1 2 1 3 3 4 8 6 4 3 0 2 3 3 2 2 2 3 5 1 5 4 2 2 8 7 4 4 3 4 4 3 3 1 2 3 2 3 6 8 5 3 9 9 9 9 10 11 11 11 11 12 12 11 11 11 10 10 11 11 12 12 13 14 14 15 15 15 15 15 15 15 15 15 15 15 16 16 16 16 16 17 18 18 18 16 17 16 16 15 15
6 4 4 4 3 2 3 1 2 3 3 5 2 4 1 4 2 1 2 7 6 6 5 5 2 4 2 1 1 3 1 4 8 6 4 7 6 3 4 2 1 3 2 4 7 7 5 4 7 9 9 10 12 12 11 12 12 12 13 12 12 11 11 11 11 11 12 12 13 13 14 14 15 15 15 15 15 15 15 15 15 15 15 15 15 15 15 16 16 17 16 16 16 15 15 15 15
5 5 3 2 2 2 2 2 2 4 4 6 1 0 2 2 7 11 8 6 5 4 2 1 1 1 1 3 1 1 5 3 4 7 5 7 1 8 5 3 5 3 1 4 7 6 4 5 9 10 10 11 12 12 12 12 12 12 12 12 12 12 12 12 13 12 13 13 13 13 13 14 14 14 14 14 14 14 14 15 15 15 15 15 15 15 14 15 15 15 15 15 16 15 15 14 14
4 4 2 3 1 2 1 2 3 3 6 4 1 0 2 4 8 8 5 4 3 3 1 2 1 1 2 0 1 1 2 5 3 5 3 3 4 6 5 4 3 4 3 6 8 6 5 8 9 10 10 11 12 12 12 12 12 12 12 12 12 12 12 12 12 13 12 13 13 13 13 13 13 14 14 14 14 14 14 14 14 14 14 14 14 14 14 14 14 14 14 14 15 15 15 15 15
4 4 3 0 1 1 1 2 3 6 9 4 4 3 0 7 8 8 5 5 4 5 4 2 1 2 1 0 3 2 1 2 4 4 4 3 6 7 5 3 5 4 3 8 7 5 4 8 9 10 11 11 11 12 12 12 12 12 12 12 12 12 12 12 12 12 12 12 13 13 13 13 13 13 13 13 13 13 13 13 13 13 13 13 14 14 14 14 14 14 14 14 14 14 14 15 15
2 2 1 1 3 1 2 3 5 7 2 3 3 4 3 8 8 8 5 3 1 3 1 1 2 1 1 1 4 3 2 2 4 2 4 6 6 5 5 3 5 5 5 8 7 6 4 9 10 10 11 11 12 12 12 12 12 12 12 12 12 12 12 12 12 12 12 12 12 13 12 13 13 13 13 13 13 13 13 13 13 13 13 13 13 13 13 13 13 14 13 14 14 14 14 14 14
2 0 2 2 2 2 3 4 7 5 3 1 1 4 4 9 7 5 5 2 4 2 3 2 1 1 0 3 2 1 4 5 7 9 11 7 6 5 4 4 5 4 6 7 7 5 6 9 10 10 11 11 11 12 12 12 12 12 12 12 12 12 12 12 12 12 12 12 12 13 13 13 13 13 13 13 13 13 13 13 13 13 13 13 13 13 13 12 13 13 13 13 13 13 13 13 13
2 1 1 1 2 2 3 5 7 5 5 3 4 3 3 8 4 5 5 1 4 2 7 5 3 4 1 1 1 3 3 5 7 9 9 9 7 5 3 5 5 5 6 8 7 5 4 7 10 10 10 11 12 12 12 12 12 12 12 12 12 12 12 12 12 12 12 12 12 13 13 13 13 13 13 13 13 13 13 12 12 12 12 12 13 13 13 13 13 13 13 13 13 12 12 12 13
1 1 1 1 1 4 4 5 6 7 2 2 4 3 3 5 3 4 6 4 4 3 5 6 4 4 4 2 2 2 4 7 8 7 8 8 7 5 4 5 7 6 6 7 6 6 4 8 11 11 11 11 12 12 12 12 12 12 12 12 12 12 12 12 12 12 12 13 12 13 13 13 13 13 13 13 13 13 13 13 13 13 13 13 13 13 13 13 13 13 13 13 12 12 13 13 13
2 2 0 1 3 4 5 7 4 1 4 2 3 3 2 3 3 4 4 4 6 3 5 8 3 7 3 2 1 3 9 9 9 10 8 8 6 5 4 6 6 5 6 6 7 6 4 4 11 12 12 12 12 12 12 12 12 12 12 12 12 12 12 12 12 12 13 13 13 13 13 13 13 13 13 13 13 13 13 13 13 13 13 14 14 14 14 14 14 14 14 14 13 13 13 13 13
2 3 2 2 4 4 4 4 5 5 2 2 3 5 1 3 2 3 4 4 5 4 4 7 1 4 4 4 2 3 8 8 6 8 8 7 6 6 6 4 5 6 6 5 6 7 6 4 4 9 12 13 12 12 12 12 12 12 12 12 12 12 12 12 12 12 12 12 13 13 12 13 13 13 14 14 14 13 14 14 14 14 14 14 14 14 15 15 15 15 16 16 16 15 15 14 13
2 3 3 2 3 4 6 6 4 5 5 5 5 2 4 3 4 4 3 4 6 5 5 9 2 0 2 4 2 5 8 8 7 8 8 6 6 6 6 6 5 7 5 5 5 7 6 6 6 4 8 13 12 11 11 11 11 11 12 12 12 11 11 12 12 12 11 12 12 12 12 12 13 13 13 14 14 14 14 14 13 13 13 14 13 13 14 14 15 15 16 16 16 17 17 16 15
1 2 3 4 3 5 5 4 4 4 3 1 4 4 2 1 3 3 1 4 6 6 0 14 2 1 3 3 1 5 6 9 10 9 7 7 6 6 6 5 6 5 5 5 5 5 6 6 6 6 6 6 6 8 9 10 10 11 11 11 11 11 11 11 11 11 10 10 10 10 11 12 11 12 12 12 13 13 12 12 12 12 12 12 12 11 12 12 12 12 13 14 14 15 15 15 15
1 3 1 2 4 4 4 5 3 2 3 2 2 2 1 2 1 2 4 4 1 3 1 4 3 3 2 6 2 5 9 11 12 9 8 7 7 5 6 6 5 5 5 6 6 5 5 8 8 7 5 6 6 5 3 4 9 9 10 10 11 11 10 10 10 9 9 8 8 7 8 9 9 8 9 9 9 11 10 9 10 10 11 11 11 10 10 11 11 11 11 12 12 13 14 14 13
1 3 1 2 3 3 4 1 2 1 2 2 3 2 2 2 2 1 0 2 2 2 1 2 2 2 1 1 1 5 14 12 11 9 8 9 6 5 6 6 5 5 5 5 6 5 6 6 6 5 5 5 6 6 5 3 6 9 9 10 10 9 9 8 8 8 6 4 3 3 4 6 7 5 7 4 7 7 9 7 9 10 11 12 12 11 11 12 12 11 12 12 12 11 12 12 12
0 0 2 3 5 5 4 4 1 2 1 3 2 3 3 3 2 1 2 1 1 3 2 1 4 0 0 3 2 12 11 11 10 9 7 7 6 6 5 5 6 5 4 4 5 5 6 7 7 6 5 6 7 7 6 4 5 9 7 8 8 7 7 6 6 6 6 3 4 6 5 4 5 4 3 2 5 3 6 6 8 10 11 12 13 11 11 13 13 12 12 14 13 12 13 12 10
1 2 2 4 6 8 3 4 2 1 1 2 2 3 1 3 2 2 1 3 3 2 5 2 4 4 4 4 5 10 12 13 10 12 8 7 6 6 6 6 6 7 6 5 5 5 6 6 6 7 6 6 6 6 5 5 5 7 6 4 4 4 4 5 2 2 3 0 3 1 3 2 5 3 2 2 1 1 2 3 5 8 11 12 14 12 12 14 14 13 13 15 13 14 13 7 6
3 2 3 6 4 2 2 2 3 2 3 3 1 3 2 3 7 2 2 3 6 6 7 4 5 4 9 6 9 12 12 12 12 11 12 11 10 10 9 7 8 6 7 6 6 7 5 5 5 7 6 6 7 5 5 6 6 4 5 5 4 5 2 1 3 3 1 1 1 4 3 1 2 3 2 1 1 1 1 2 4 8 12 11 14 12 14 14 14 14 14 14 14 13 7 6 6
4 2 4 6 2 5 6 3 2 2 3 3 5 3 3 3 3 3 3 4 5 11 8 6 9 10 9 8 10 12 12 12 12 12 13 12 11 10 10 9 9 8 8 8 7 6 7 7 6 7 7 7 6 6 5 6 5 6 6 6 6 6 4 3 3 3 1 1 2 3 2 0 3 4 3 6 5 4 4 6 8 9 10 9 13 7 10 12 15 13 14 14 8 6 6 6 6
3 4 4 4 0 2 2 2 1 2 2 3 4 1 2 4 2 3 3 3 9 10 9 11 13 13 11 12 11 11 12 12 12 11 12 12 10 9 9 10 10 8 8 7 7 8 8 8 6 7 7 7 6 7 6 7 6 6 7 6 6 7 5 6 5 4 1 1 2 2 1 0 3 4 4 4 4 4 5 5 5 5 5 4 7 5 5 5 6 6 6 7 6 6 7 6 6
1 6 6 6 6 3 1 3 5 1 2 1 3 4 4 2 3 5 5 7 10 6 7 13 12 10 9 14 14 12 13 13 13 13 13 14 15 13 9 7 7 7 8 9 10 9 9 9 7 7 7 7 6 7 6 6 6 6 5 5 6 4 4 4 6 6 3 2 1 2 1 2 3 4 4 4 4 5 5 5 4 4 5 3 4 5 4 4 5 5 5 5 6 6 6 6 6
4 6 8 12 9 5 1 2 2 2 1 3 2 4 3 4 3 5 7 13 12 1 1 2 4 9 8 16 14 14 14 15 15 16 15 14 14 13 12 10 10 11 9 9 9 8 9 9 8 8 8 7 6 7 5 6 6 6 6 6 5 6 5 4 5 6 4 1 1 1 2 2 3 4 4 4 4 5 5 4 4 3 4 3 3 4 4 4 6 6 6 5 6 5 6 6 6
4 6 5 9 6 6 5 1 5 2 3 3 1 3 2 3 9 4 10 15 14 9 4 2 1 4 1 13 15 18 18 18 18 18 17 18 17 16 13 12 10 7 8 9 9 9 10 10 10 10 8 8 6 6 6 7 5 5 5 4 4 6 6 4 5 6 5 4 3 2 2 3 4 4 3 4 4 4 3 3 2 3 4 3 4 4 5 4 6 5 5 4 5 5 6 6 6
4 7 6 7 0 3 3 3 3 4 4 4 1 3 7 6 6 3 17 13 11 11 10 5 3 3 4 11 13 12 13 13 13 13 11 10 9 10 9 7 8 9 11 10 10 10 11 11 11 11 9 9 7 6 6 6 6 5 6 5 3 4 4 5 6 5 5 6 3 2 2 3 4 4 3 3 3 3 2 2 3 3 3 3 5 4 5 5 6 6 6 5 5 6 6 7 6
5 9 5 6 5 4 4 4 4 5 3 4 3 9 7 8 7 13 22 14 10 6 7 7 5 5 6 10 12 12 13 14 13 12 15 12 10 11 12 11 9 11 12 11 11 10 10 11 12 12 11 10 8 7 6 7 6 6 6 5 6 4 4 6 5 5 6 6 4 3 3 3 5 4 3 2 3 2 1 3 3 3 3 3 4 5 5 6 6 6 6 5 6 6 6 7 7
1 3 5 6 9 8 4 5 5 6 5 5 7 8 7 4 6 12 10 15 11 12 12 8 7 8 9 8 9 11 13 14 15 12 9 9 11 13 13 12 11 10 11 12 11 10 10 12 11 11 11 9 8 8 7 7 7 6 6 6 6 5 5 6 4 5 5 6 4 4 4 3 4 4 3 2 3 2 3 3 2 2 3 4 5 5 5 5 6 6 6 6 6 6 6 6 6
5 3 5 8 11 11 10 9 9 4 4 7 6 8 5 2 2 16 14 2 4 11 13 11 10 9 8 9 10 9 11 11 10 10 15 14 13 13 13 14 13 10 13 13 11 10 11 13 13 11 12 10 10 8 7 8 7 7 6 7 7 5 6 5 5 6 5 6 4 3 4 3 3 4 3 2 1 2 3 2 1 3 3 3 5 5 6 5 5 5 5 4 5 5 6 6 6
3 3 5 10 9 11 11 13 11 8 5 7 5 3 9 8 11 21 21 7 3 4 7 10 12 11 9 8 9 8 11 10 9 11 15 15 12 12 15 14 14 12 9 12 11 12 13 13 13 12 12 10 11 10 8 7 8 7 7 6 6 6 6 6 5 6 6 5 4 4 4 3 3 4 4 2 1 2 3 2 2 2 2 4 5 4 4 3 4 6 6 4 5 5 6 6 5
3 3 4 11 10 11 15 12 11 9 4 9 7 4 10 13 22 20 19 8 8 6 8 7 8 9 8 8 9 10 9 9 11 14 13 13 12 13 14 13 14 12 10 9 11 14 12 9 9 9 11 12 11 9 8 8 8 8 7 7 6 7 5 6 6 6 7 6 5 4 4 4 4 4 3 3 0 2 1 1 2 1 3 4 4 3 3 4 5 5 4 5 5 5 6 6 6
4 6 5 6 4 8 6 9 11 10 4 11 4 5 12 10 12 21 16 8 10 12 10 8 8 8 8 9 10 11 12 12 15 15 13 13 12 11 14 12 13 12 9 10 15 14 12 11 10 9 11 11 10 9 10 8 7 7 7 7 7 6 6 6 7 6 6 7 6 5 4 4 4 4 2 2 2 1 1 2 2 2 4 3 2 2 3 3 3 4 4 5 5 4 5 5 6
3 2 6 5 7 9 5 2 15 12 2 7 6 6 13 17 11 6 14 8 11 10 9 9 9 10 10 9 11 11 12 12 14 13 13 13 13 11 13 14 14 14 14 13 11 12 13 12 11 10 11 12 10 10 9 8 8 7 7 7 8 5 7 6 6 6 6 7 7 6 5 4 5 5 3 2 2 2 1 1 1 3 3 2 1 1 1 3 3 3 3 4 5 5 5 6 6
6 8 6 6 6 9 6 4 6 8 6 5 13 8 3 8 3 1 2 9 9 9 7 8 11 12 12 11 10 10 10 10 11 12 12 12 12 11 12 13 15 16 13 13 14 13 13 12 13 12 14 13 11 9 9 7 8 7 7 7 7 5 6 6 7 7 7 6 7 7 6 5 5 4 3 3 2 2 1 2 1 2 2 0 0 1 1 2 3 3 3 2 2 5 6 7 6
6 6 9 7 8 5 6 2 3 6 9 7 12 9 13 9 4 1 0 4 7 7 8 9 10 10 11 9 10 11 12 12 14 13 13 12 11 11 11 12 13 13 12 13 14 15 15 13 12 11 10 10 10 9 8 8 7 7 6 7 6 5 5 6 6 7 7 6 6 7 7 6 6 5 4 4 3 2 2 1 1 1 1 0 0 1 1 2 3 3 3 2 3 4 5 6 8
5 4 4 6 7 10 9 4 4 6 7 5 7 13 16 13 12 10 5 4 7 10 10 12 13 12 13 11 10 11 12 13 15 10 12 12 11 11 10 11 11 13 11 13 13 12 11 11 10 10 11 11 10 9 7 7 7 6 6 6 6 5 4 6 6 7 7 7 6 6 7 6 6 6 4 4 3 3 3 2 2 1 1 0 0 1 1 2 2 3 4 6 4 3 5 6 8
10 10 8 6 9 7 8 7 3 13 7 9 10 12 15 16 15 14 13 11 12 13 12 13 13 14 14 12 12 11 12 16 11 9 12 12 11 11 10 10 10 11 11 11 13 12 11 11 9 9 10 10 9 8 8 7 7 7 8 6 5 6 6 5 6 7 6 7 6 7 7 6 6 6 5 4 4 3 3 3 2 1 0 0 0 1 1 2 3 4 4 4 7 6 4 6 6
12 9 8 11 9 10 11 12 5 9 4 11 14 14 12 15 12 11 11 9 9 10 12 12 12 14 15 12 12 14 13 15 7 11 12 13 12 11 9 10 10 11 11 12 13 13 13 14 13 14 11 12 11 11 10 10 10 8 6 8 9 7 8 6 6 6 7 6 6 7 6 6 6 6 5 5 5 4 3 2 2 1 2 1 1 1 1 1 2 2 3 3 5 7 6 4 5
14 11 9 11 6 13 13 11 3 5 6 4 9 11 13 14 11 11 10 8 14 14 14 15 17 18 15 13 14 14 13 3 7 7 9 9 10 10 9 9 10 14 11 13 15 15 13 14 15 13 11 12 11 12 11 11 10 11 11 10 8 9 9 9 8 7 7 6 7 7 7 6 6 6 6 5 4 5 4 4 3 3 1 0 1 1 1 1 2 3 3 3 2 4 5 4 7
7 6 6 7 9 11 12 6 3 0 3 7 7 11 13 14 14 14 13 14 15 13 16 17 16 16 15 13 12 11 6 6 7 9 9 11 10 11 10 10 11 14 14 15 13 13 13 13 13 12 12 12 11 12 11 11 9 8 8 7 9 7 5 5 6 6 6 6 7 7 7 7 7 6 6 6 5 4 4 3 3 2 1 1 0 1 1 1 1 2 2 3 5 3 4 5 6
7 7 5 11 9 6 8 2 2 3 5 2 4 9 9 11 14 19 19 19 18 18 19 18 15 16 17 18 14 7 7 9 10 10 11 10 11 11 10 10 11 11 11 11 12 15 12 12 12 13 13 12 11 11 11 9 9 7 6 7 7 8 7 7 7 7 7 7 7 7 7 7 7 6 6 5 4 4 4 4 3 2 2 1 1 1 1 2 1 3 3 3 2 6 3 3 3
7 9 9 10 10 11 9 4 4 5 7 5 5 10 11 11 16 14 15 17 15 15 15 14 14 13 16 15 8 7 9 11 10 9 9 10 11 13 14 12 11 13 13 13 14 14 11 14 14 14 13 13 11 11 12 10 9 8 6 7 5 7 5 6 6 6 7 7 6 7 8 6 6 7 6 6 6 5 4 4 3 3 2 2 1 1 1 2 3 3 2 2 3 4 6 3 3
7 7 11 15 13 12 10 9 6 4 5 5 3 8 9 9 16 17 10 3 7 10 11 14 14 14 15 12 13 7 6 10 13 14 14 14 14 10 9 11 12 12 13 13 12 13 11 12 13 13 11 11 12 12 13 12 11 12 11 11 10 8 8 9 11 12 10 10 10 7 6 7 6 6 6 6 6 5 5 5 4 3 3 2 3 3 3 3 3 3 3 3 4 4 5 6 6
9 5 9 14 12 9 8 8 2 5 6 1 1 1 17 5 8 6 3 6 9 7 9 12 13 14 13 11 9 8 9 8 8 9 9 11 11 12 13 13 14 14 13 10 10 11 12 12 13 14 13 11 11 12 13 11 11 11 14 14 14 14 13 9 7 7 8 7 6 8 8 7 7 7 6 6 6 5 5 4 4 4 3 4 3 3 3 3 3 3 3 3 3 3 3 7 7
11 0 1 0 1 5 4 3 5 7 2 4 4 1 9 21 10 5 11 9 9 9 9 11 14 14 13 12 7 8 10 10 11 12 13 13 14 16 17 17 15 15 11 10 11 12 14 14 14 14 11 11 11 11 14 13 13 12 12 11 10 11 11 11 10 9 8 8 9 8 7 7 7 7 7 6 6 6 5 5 5 4 4 4 3 5 4 4 4 3 3 3 3 4 5 7 8
2 0 2 2 1 0 1 2 4 3 4 8 7 5 4 14 4 10 12 7 9 11 10 13 15 13 14 16 8 8 10 12 12 11 13 15 16 15 14 14 13 11 11 13 13 12 12 12 13 12 13 12 11 13 14 13 12 12 12 11 10 8 8 7 7 7 8 9 9 7 8 8 7 7 7 7 6 6 6 5 5 5 5 4 4 5 4 4 4 4 4 4 4 5 5 6 6
1 1 4 2 1 2 0 1 1 3 1 14 7 9 7 20 15 3 6 10 13 11 13 16 15 13 14 14 6 7 7 7 9 12 11 12 13 12 11 10 10 12 11 10 10 10 11 11 13 15 15 13 12 14 14 14 13 11 12 12 12 9 8 7 9 9 8 9 9 9 8 8 7 7 7 6 6 6 6 5 5 5 5 4 3 4 4 4 4 4 4 4 5 6 5 6 7
2 0 1 1 0 2 0 1 1 2 8 18 8 12 11 14 8 10 8 9 11 10 8 9 9 12 11 9 6 8 8 8 8 8 8 8 8 10 10 12 12 10 9 11 11 12 11 12 13 16 16 12 13 15 15 16 14 13 13 13 13 12 11 9 10 9 9 8 9 8 8 7 7 7 7 7 7 6 6 5 5 5 4 4 4 4 5 5 5 5 5 6 6 7 6 6 8
1 1 1 1 4 2 0 1 2 3 15 7 12 15 15 13 3 1 11 10 14 14 13 13 12 15 12 9 9 8 9 8 8 8 7 8 8 9 10 10 12 12 11 12 12 12 13 13 13 15 14 15 14 14 15 15 14 14 12 13 14 13 13 11 13 13 12 12 10 10 8 7 7 7 7 7 7 7 6 6 5 5 5 4 5 5 5 5 5 5 5 4 4 5 5 6 7
3 3 2 2 4 1 2 2 2 6 14 1 9 12 5 22 15 1 4 3 9 9 11 12 14 13 11 10 11 8 8 8 9 8 8 8 11 12 13 12 11 13 15 15 15 13 12 13 15 16 17 16 15 15 16 15 14 15 14 14 13 12 12 12 12 12 11 11 10 9 9 9 7 8 8 8 8 9 7 7 6 6 6 6 6 5 5 5 5 4 3 4 4 6 6 6 7
8 7 7 5 4 4 7 5 4 6 7 6 6 9 13 10 6 10 8 7 10 12 10 10 11 10 8 8 7 6 7 9 9 9 9 9 11 11 12 13 13 13 13 14 13 14 13 13 15 17 18 15 14 14 15 16 17 15 14 13 13 12 12 12 11 11 10 10 9 11 10 10 10 9 8 8 8 8 7 7 6 6 6 5 5 5 4 3 3 3 4 5 6 6 5 7 8
15 5 10 11 8 1 3 4 8 8 8 1 2 5 8 3 6 12 19 15 10 11 11 10 8 6 9 4 5 6 6 6 8 9 10 11 11 11 12 12 12 12 13 13 12 13 13 13 15 18 16 16 16 16 14 17 15 15 14 13 12 11 12 11 10 9 10 11 9 10 9 8 8 8 8 7 8 8 7 6 6 6 4 4 4 4 4 4 4 3 4 5 5 5 6 7 7
4 4 1 2 9 3 10 9 7 5 5 7 5 7 2 6 1 6 11 15 15 11 14 10 7 7 6 5 7 7 7 7 7 8 9 9 9 9 9 10 11 11 13 12 13 13 14 16 16 17 17 16 16 16 16 16 15 13 13 14 14 13 10 9 8 8 9 10 10 10 9 9 8 8 8 8 7 8 7 6 5 4 4 4 4 4 4 4 3 3 4 4 6 5 6 7 7
3 8 7 11 1 6 4 6 6 2 4 19 4 9 12 6 17 17 11 7 10 9 10 8 7 10 11 6 6 7 8 8 8 9 10 10 8 9 11 11 10 10 11 15 17 17 19 17 15 17 16 14 16 17 16 14 14 14 15 14 13 13 13 13 12 11 11 9 9 9 9 9 8 8 7 7 7 6 6 6 5 5 5 5 5 5 4 4 3 4 5 5 7 5 6 7 7
7 3 6 1 1 3 3 3 1 3 6 15 5 12 15 6 16 3 16 15 12 11 14 13 12 16 11 7 8 9 9 10 9 8 8 11 13 13 12 11 13 15 16 16 16 15 15 15 17 17 16 18 18 16 16 15 16 16 14 15 14 14 13 12 11 12 10 10 9 8 8 9 9 8 7 6 7 7 6 6 6 5 4 4 4 4 4 4 4 5 5 6 6 5 7 7 7
2 5 2 4 3 2 3 1 4 6 10 9 12 13 15 17 19 7 3 15 16 15 13 14 15 15 9 7 8 7 6 6 7 9 10 9 10 12 13 14 13 12 13 14 13 12 11 11 13 15 19 19 17 14 13 12 13 12 12 14 14 13 11 11 10 10 10 11 11 10 10 9 8 8 8 8 7 7 6 5 5 4 5 5 4 4 4 4 4 5 5 6 6 5 6 7 7
1 1 4 0 2 2 6 7 3 3 11 6 18 18 19 12 7 7 10 11 14 17 14 15 17 15 12 8 8 8 7 8 9 9 9 12 13 12 13 13 13 15 13 11 12 11 13 14 13 13 12 11 12 15 15 15 15 12 12 11 12 12 11 12 11 12 11 11 11 10 10 9 9 8 8 8 7 7 6 6 5 6 6 5 5 4 4 4 4 5 5 6 5 5 7 8 7
5 1 4 0 2 2 2 3 5 6 6 8 9 15 18 3 3 7 9 13 12 10 12 12 13 13 11 9 9 6 7 8 8 9 10 11 10 9 10 11 11 8 7 9 11 15 14 10 12 14 16 16 16 16 14 14 12 13 13 15 14 13 13 11 11 11 11 10 9 10 9 8 8 8 8 8 8 7 6 7 6 6 6 5 4 4 3 3 4 5 5 6 6 6 8 8 7
14 15 15 16 9 4 5 12 3 4 5 6 7 15 23 4 6 5 5 5 7 9 11 10 8 13 11 6 6 6 6 7 8 9 9 9 9 10 10 8 6 8 9 11 11 8 9 14 16 14 12 12 15 14 16 14 13 12 14 13 13 11 12 11 12 11 11 11 10 10 10 9 10 8 9 8 8 6 6 6 5 5 5 4 3 3 3 3 5 5 6 5 6 7 8 8 6
Wind_Direction
278 246 243 234 246 256 311 233 310 206 218 245 262 245 157 72 128 117 122 85 136 62 67 144 37 25 25 41 40 89 25 50 61 245 216 176 137 105 122 48 112 109 104 95 129 87 73 60 80 76 74 77 82 81 80 80 81 77 79 80 74 73 70 65 58 57 58 60 57 58 57 55 54 53 52 51 50 47 46 43 38 35 33 32 31 30 30 30 30 35 35 45 46 35 31 29 25
265 244 240 246 260 345 262 170 244 276 213 260 246 255 115 91 72 140 129 143 22 73 59 45 53 105 67 345 314 86 67 43 31 101 82 122 143 136 128 273 99 101 88 102 91 91 77 58 85 88 90 90 92 91 89 89 86 83 80 81 84 79 77 73 68 63 59 59 58 59 58 57 57 55 54 53 51 50 49 46 43 39 36 33 32 31 29 29 31 29 30 36 44 35 28 26 25
306 298 261 201 249 224 303 311 271 289 289 262 350 69 147 95 149 67 77 89 99 87 64 49 59 27 320 325 300 0 128 113 90 88 101 146 144 188 160 163 104 98 66 79 78 82 82 63 85 100 99 100 95 94 93 88 84 83 83 84 83 82 81 78 74 70 69 66 64 61 60 59 58 57 55 54 52 50 48 45 43 40 37 34 33 32 30 30 29 29 26 24 34 33 26 23 21
284 286 300 279 275 145 281 185 256 279 283 282 84 297 106 121 69 83 70 75 84 110 106 94 88 267 5 206 347 55 101 107 87 131 127 179 201 141 148 168 167 108 127 96 83 73 83 84 94 96 103 99 94 93 91 88 87 86 84 85 84 83 81 78 75 73 70 67 65 63 61 59 57 57 55 54 52 50 47 44 42 39 36 34 32 32 32 32 31 29 28 25 27 28 24 22 18
282 262 220 309 297 203 253 230 246 230 257 267 28 182 51 69 100 88 76 82 74 81 109 105 90 39 59 15 5 308 127 91 96 100 105 103 126 120 141 177 157 139 132 100 98 91 77 83 94 99 98 96 96 94 92 92 90 87 85 84 84 83 80 78 76 74 71 69 66 64 62 60 58 57 57 55 54 52 50 47 44 40 37 33 30 30 30 30 30 31 30 28 27 25 23 20 19
266 279 169 312 317 64 357 302 271 241 247 276 295 103 53 94 104 109 95 67 54 54 25 120 21 105 185 56 16 113 165 193 130 87 123 150 111 132 144 189 139 124 94 65 75 85 85 88 93 94 94 95 95 94 92 92 91 89 88 85 84 81 79 79 77 75 73 71 68 65 63 61 60 58 58 56 54 54 52 50 47 44 41 37 33 30 29 29 28 28 28 26 26 24 22 19 16
293 271 190 231 269 140 261 250 258 270 280 327 14 31 47 94 115 114 119 102 61 84 14 97 125 63 240 102 79 59 96 4 142 82 111 136 129 127 157 176 108 109 107 92 82 69 71 101 99 97 98 98 96 95 92 92 89 87 87 86 84 81 80 79 78 76 74 72 69 66 63 60 58 57 55 54 52 51 49 46 45 42 39 38 35 32 29 27 27 27 25 24 23 20 17 15 13
237 105 155 204 249 114 235 249 264 272 282 20 139 53 36 117 128 135 155 179 167 161 190 56 120 336 116 141 235 81 77 53 97 113 117 119 128 147 165 125 117 121 97 95 94 83 60 93 102 104 105 103 102 100 98 95 93 92 89 89 86 84 83 81 78 77 75 72 69 66 63 60 56 53 53 52 51 49 47 45 42 38 35 34 33 31 26 25 24 24 23 21 21 17 13 8 6
223 190 34 34 280 217 246 243 253 238 247 126 78 89 9 126 157 141 161 158 108 203 154 157 185 125 135 167 88 188 108 130 120 123 121 130 135 157 161 144 129 124 108 109 109 91 55 86 102 104 105 104 102 101 100 97 97 96 94 92 89 87 86 83 80 78 75 73 71 69 67 64 60 56 55 52 50 47 45 44 41 39 35 33 30 29 27 25 23 23 22 19 17 14 9 7 4
266 172 230 226 276 273 263 249 232 228 230 42 105 136 170 125 161 174 165 158 157 164 167 151 168 224 145 202 103 216 177 142 131 120 131 136 145 158 147 118 110 114 110 113 111 100 93 77 91 98 99 99 99 99 96 96 95 95 94 93 92 90 88 85 83 80 78 76 74 71 69 66 62 59 55 52 48 45 42 39 37 35 33 30 28 25 24 21 20 21 19 18 15 10 6 3 0
245 167 222 328 227 246 250 265 266 34 103 168 116 112 157 147 166 190 167 184 126 165 115 134 190 229 236 247 81 296 120 141 146 146 150 145 146 136 116 101 123 130 123 118 117 130 115 91 83 88 91 93 94 94 93 95 95 95 94 93 92 91 88 86 84 82 80 78 75 73 69 65 62 59 54 50 47 44 39 36 34 32 30 27 24 23 21 19 16 15 14 12 10 7 4 1 359
271 198 130 252 263 248 270 288 331 311 103 144 174 138 119 172 180 192 179 199 153 138 153 161 214 165 222 248 160 159 143 157 157 143 146 140 140 139 119 114 119 102 111 128 141 132 133 132 97 86 89 90 89 90 92 93 95 95 94 93 91 88 85 84 81 80 79 78 76 72 69 64 61 56 52 47 43 40 36 32 30 29 28 25 22 21 19 16 13 12 9 7 4 2 1 360 1
264 313 211 228 252 274 284 315 290 336 305 313 135 158 122 188 199 201 190 212 152 162 189 192 99 320 226 205 35 146 173 175 146 145 138 147 144 126 129 124 122 126 134 146 125 139 150 124 123 110 101 90 85 86 90 93 96 95 93 92 90 87 86 82 80 79 77 76 74 71 66 64 61 57 53 48 41 36 34 29 28 28 26 22 21 21 18 16 12 9 6 3 0 358 356 356 358
247 252 333 280 292 279 272 260 289 272 295 107 59 111 168 182 187 235 251 214 172 192 331 177 165 153 275 88 213 179 195 164 137 141 143 146 129 129 127 128 125 123 141 142 138 144 143 134 123 140 131 111 100 83 84 95 96 98 97 93 90 86 82 79 78 77 75 76 78 75 72 67 64 61 57 55 48 38 31 27 25 27 24 22 19 19 18 16 12 8 5 1 359 357 355 354 354
266 323 331 261 282 306 278 271 253 328 297 87 98 143 177 236 45 244 260 239 141 2 107 112 156 99 249 197 205 191 163 161 138 142 152 131 129 139 119 123 128 133 167 163 151 157 140 132 147 161 156 142 136 115 90 89 99 100 98 93 90 87 84 82 80 77 78 80 86 94 97 94 81 78 74 67 64 53 41 24 19 26 25 22 19 18 17 14 10 8 5 3 359 356 355 352 349
240 348 237 261 261 261 277 243 255 307 261 103 213 119 195 87 16 285 61 76 62 280 73 203 229 214 318 335 156 117 141 142 137 143 144 131 141 135 129 143 152 155 180 163 157 159 151 139 145 140 137 146 124 122 121 111 103 99 96 93 90 91 92 95 97 93 91 103 113 167 174 147 117 86 77 82 76 66 53 36 22 24 23 20 16 14 13 12 7 6 5 3 360 356 353 345 334
327 94 270 230 270 248 240 206 216 259 344 122 170 170 174 194 170 71 148 263 211 167 222 218 188 32 259 90 122 120 132 123 135 141 138 142 147 145 159 166 166 164 172 177 167 167 149 150 151 149 149 136 128 132 138 137 134 116 104 106 105 102 99 102 117 141 156 169 204 186 209 135 99 92 72 28 81 103 67 40 24 20 23 18 13 9 11 9 5 4 3 1 358 359 358 354 346
163 207 201 255 242 251 351 339 5 66 315 109 244 174 222 252 115 178 76 258 236 239 184 239 193 213 102 135 128 130 127 137 150 150 158 160 169 163 179 186 177 178 172 183 181 166 158 161 159 148 140 138 139 137 148 155 175 157 149 157 147 140 154 145 103 110 89 302 236 177 100 61 116 110 113 77 89 64 72 60 20 19 20 16 11 9 14 10 4 7 4 2 3 5 360 348 348
197 241 217 243 253 275 174 33 349 22 304 354 168 166 225 263 145 155 170 218 203 239 239 189 229 202 102 145 133 136 142 151 161 166 167 174 183 182 182 180 189 167 178 179 189 168 168 162 165 144 147 150 143 153 158 167 177 156 152 136 137 142 162 104 111 81 63 323 322 88 78 3 108 111 101 41 36 136 152 33 3 26 17 18 8 12 14 6 4 6 4 3 4 359 356 344 348
229 254 262 262 297 321 310 8 1 21 7 298 299 185 195 245 152 96 210 252 205 218 224 210 216 220 176 164 154 152 157 164 171 174 181 185 188 187 181 184 189 189 177 179 177 166 169 162 175 152 157 154 150 161 171 171 174 160 165 166 164 160 156 138 103 91 78 347 7 74 96 292 77 82 103 38 52 51 39 25 22 33 14 15 10 2 18 359 360 357 359 358 357 352 349 346 345
203 174 225 254 194 7 339 56 51 38 56 303 287 324 221 243 231 142 206 247 246 243 211 208 214 222 199 166 163 162 167 172 180 185 186 191 194 198 192 189 187 184 169 162 163 175 175 162 175 153 153 157 166 167 180 176 176 170 160 168 154 148 161 152 142 126 116 56 18 108 148 150 90 91 63 53 42 53 44 28 21 20 18 9 13 3 16 355 351 348 352 350 353 346 345 340 342
1 234 255 261 284 240 15 70 56 60 44 318 289 280 240 229 216 199 210 219 250 209 227 209 218 216 197 164 176 170 175 179 184 190 195 193 193 197 193 182 176 177 158 171 175 172 176 166 166 155 155 172 178 165 180 167 165 156 157 156 147 136 140 142 145 142 116 58 74 327 122 67 84 79 77 62 45 53 53 30 17 20 21 1 20 358 15 0 349 344 352 344 341 341 338 334 327
242 250 242 248 251 265 141 186 88 98 206 217 249 268 274 225 246 216 217 225 241 179 111 35 224 219 212 166 167 176 181 186 188 194 195 197 198 198 196 184 177 180 172 176 164 172 171 164 161 158 163 171 177 173 159 147 180 160 152 154 146 147 153 149 123 108 107 114 59 19 52 69 77 82 71 63 53 59 52 36 10 19 22 2 15 10 13 3 349 349 345 340 341 339 333 329 324
233 259 291 299 311 259 272 191 136 184 235 245 268 16 285 241 249 220 233 236 243 253 278 170 105 28 113 146 175 181 187 189 195 197 195 199 196 195 191 188 181 169 164 170 167 169 174 167 163 162 168 169 181 172 147 165 186 147 142 139 152 155 151 144 127 122 135 100 65 24 3 76 89 80 65 57 58 62 56 43 5 24 12 4 20 16 17 3 353 348 340 338 342 335 332 326 327
227 260 245 256 343 267 262 152 188 201 231 252 286 273 241 241 250 293 254 244 236 235 239 210 185 156 126 159 180 188 193 198 201 200 201 205 201 196 196 191 178 167 173 175 167 166 176 165 164 169 167 170 176 164 164 170 161 136 132 157 152 148 147 141 133 147 135 116 104 66 30 63 68 81 64 67 68 64 53 47 28 30 11 5 33 10 17 7 354 345 335 341 339 336 333 325 322
217 242 263 288 275 264 250 205 200 207 228 201 229 243 249 249 279 261 256 252 245 245 229 222 199 201 186 179 185 188 197 200 200 197 200 196 194 190 197 194 183 181 179 170 168 171 170 164 168 173 168 169 169 168 175 161 156 147 162 166 143 164 157 133 147 158 131 125 125 104 60 76 70 87 77 60 83 66 56 51 37 25 15 16 35 20 11 13 348 336 331 334 335 332 330 317 319
103 300 317 309 293 301 282 243 225 205 212 178 211 248 248 232 138 271 242 243 233 232 237 230 193 214 212 199 192 197 198 204 199 198 192 193 196 197 195 194 194 186 165 176 173 167 170 164 171 173 166 167 167 172 171 158 153 157 168 148 146 172 139 135 162 134 119 110 119 125 103 82 93 78 90 65 73 70 63 61 33 24 27 13 44 25 10 358 337 319 313 315 323 323 313 305 314
309 341 316 284 273 260 254 252 237 210 233 204 208 245 260 212 152 242 255 67 193 211 223 222 220 214 214 215 208 203 205 208 200 188 197 191 199 197 192 193 195 180 172 179 175 161 166 171 169 174 167 167 166 172 162 156 161 158 161 142 159 160 140 164 149 135 122 112 127 133 111 98 111 112 104 92 98 80 75 66 30 40 17 28 40 24 353 330 311 300 302 315 316 307 303 309 301
336 12 312 279 273 265 241 231 232 181 236 171 182 310 261 215 229 239 251 214 225 214 217 216 220 217 211 216 217 213 213 202 193 199 204 203 198 193 197 195 188 186 180 172 168 163 172 171 171 174 166 166 168 169 165 158 157 154 156 156 155 144 160 152 141 143 130 134 138 127 125 139 118 115 108 115 116 106 89 75 38 45 27 55 38 4 332 324 336 327 318 321 322 324 320 309 316
258 229 243 288 276 262 252 234 213 174 210 144 127 275 257 217 222 246 249 214 210 220 224 222 218 220 212 212 218 221 215 203 204 208 204 202 195 193 197 193 187 186 173 171 163 174 171 170 170 167 168 168 171 165 161 156 155 149 153 147 139 146 167 149 151 143 137 142 140 136 136 119 111 101 112 117 80 87 113 93 86 31 52 57 31 347 344 349 324 307 306 333 321 321 314 316 319
244 262 231 241 307 262 257 220 182 182 141 153 172 230 274 264 209 233 247 194 185 210 220 220 223 225 221 215 218 220 216 207 211 210 204 199 195 190 194 186 184 182 165 173 178 172 166 171 170 170 167 167 171 163 163 158 148 151 156 142 146 163 163 150 146 141 141 144 139 151 137 128 106 110 118 128 121 130 100 99 68 81 66 57 31 346 344 315 301 295 328 323 319 321 313 309 307
215 319 244 234 218 269 286 354 153 186 165 184 136 256 250 271 267 239 231 185 186 206 215 218 222 228 228 222 221 222 222 213 216 213 204 198 193 189 187 187 180 180 180 177 168 164 171 173 173 166 165 168 175 162 161 154 151 152 153 143 149 170 156 152 152 147 157 151 147 148 140 132 125 123 130 129 132 102 116 105 119 66 67 69 49 326 310 298 291 312 311 320 323 319 317 303 293
217 197 250 251 239 266 279 215 195 170 104 207 181 226 233 257 260 31 52 160 176 205 220 220 221 229 233 229 221 224 229 225 220 215 205 196 198 191 187 183 181 183 177 170 170 169 171 172 172 167 169 169 172 157 153 147 148 151 151 146 152 152 154 150 149 150 155 148 145 144 148 142 134 133 139 132 135 146 116 102 78 96 86 102 198 253 275 281 314 300 295 296 343 315 314 302 302
253 206 233 229 245 270 257 7 238 191 143 192 221 237 245 256 245 96 285 172 187 216 229 234 230 231 234 232 222 220 223 223 220 210 205 195 197 193 183 185 179 178 178 173 171 172 174 171 173 169 164 163 165 156 153 148 147 144 137 137 143 151 153 151 151 152 157 160 154 149 150 146 142 146 152 159 142 120 122 136 169 156 152 133 132 260 266 283 284 286 307 337 345 314 303 307 305
229 228 264 267 241 228 252 252 199 199 193 218 208 236 256 253 263 263 226 217 219 219 227 246 250 247 248 241 236 225 224 222 225 203 199 196 192 190 180 179 175 176 176 173 169 168 165 167 166 165 162 161 160 151 143 140 136 123 120 125 141 156 159 162 153 157 168 161 158 147 145 146 145 146 155 152 159 160 165 161 148 179 149 147 109 301 302 310 310 351 1 327 318 299 296 294 289
261 270 268 269 275 277 266 270 138 176 198 217 215 222 237 250 255 258 259 240 229 235 238 247 250 252 251 242 239 235 227 230 218 194 191 193 190 184 176 172 173 173 170 168 167 168 165 163 163 162 166 160 152 149 145 145 141 148 146 140 151 167 179 167 167 166 173 164 160 145 147 152 148 154 159 164 157 153 158 173 163 125 125 157 209 306 325 340 343 348 338 332 316 304 290 284 288
260 269 271 267 269 274 269 270 209 199 193 218 223 236 241 254 252 253 257 257 253 250 246 245 243 247 249 245 237 237 231 233 187 188 182 188 187 180 170 166 167 168 170 167 168 174 170 169 166 172 171 165 162 162 166 162 161 159 155 172 176 175 174 171 174 175 174 171 155 146 149 158 151 156 162 156 163 169 164 173 157 167 163 171 205 230 237 334 5 354 316 305 300 302 301 299 302
242 251 261 270 262 269 265 284 146 222 192 242 227 237 243 251 255 256 257 256 256 249 253 253 257 255 256 249 244 237 237 176 157 169 179 181 180 173 164 166 163 170 178 171 175 178 174 170 175 171 171 171 173 173 170 175 177 177 171 178 166 174 172 175 177 184 174 168 153 153 153 167 159 160 164 161 169 163 170 168 164 167 145 161 198 223 320 308 300 285 266 291 253 290 294 310 306
277 271 275 286 269 273 282 278 139 275 169 264 270 268 264 263 263 262 251 246 251 252 250 252 253 261 261 256 247 242 205 180 170 178 172 181 175 172 168 173 179 178 177 179 176 175 174 173 176 173 176 176 177 174 174 179 175 174 171 168 168 165 180 163 161 167 163 160 159 158 162 165 162 168 164 163 164 166 166 157 164 155 158 170 227 306 272 294 270 274 269 265 299 277 279 286 282
258 259 264 253 260 270 289 144 234 196 203 232 222 266 265 266 262 259 255 252 248 247 252 254 249 252 257 256 246 231 202 173 179 177 179 176 173 174 172 178 179 175 179 179 178 180 178 178 177 176 179 179 177 176 177 175 168 162 159 151 161 157 166 162 159 160 163 155 165 164 167 166 168 169 164 161 159 158 160 164 160 152 173 156 182 232 259 258 272 282 269 259 262 300 296 288 296
229 229 242 257 250 240 232 257 187 215 231 252 313 283 266 242 256 256 253 244 247 249 252 253 255 251 252 258 263 216 195 181 179 178 177 171 175 184 184 181 174 181 184 185 182 181 183 180 178 177 179 181 179 174 172 164 155 151 138 117 98 97 98 131 133 157 167 166 156 170 179 169 169 167 164 163 161 165 168 166 161 164 158 178 175 206 230 232 236 235 243 274 268 254 283 280 296
255 216 211 236 247 261 265 278 327 341 295 181 174 304 258 212 222 240 255 230 223 232 232 245 248 254 254 249 244 216 196 177 177 183 183 182 183 179 180 181 185 188 191 191 184 180 177 178 177 178 180 181 180 175 171 169 170 163 155 152 158 159 167 168 183 180 175 179 183 167 165 171 168 164 163 164 163 162 169 168 164 157 162 181 188 209 220 233 242 242 242 233 253 250 266 283 280
271 245 207 240 252 252 264 279 358 274 243 314 215 193 292 158 257 244 252 195 215 234 215 234 247 252 252 243 228 201 193 182 184 179 175 176 183 178 186 188 192 192 195 181 179 180 179 179 180 180 181 181 179 177 173 172 173 177 179 179 177 178 179 195 181 174 175 175 162 169 171 167 169 165 167 164 166 168 166 168 164 164 176 181 197 202 223 223 229 235 242 239 241 258 263 272 271
264 102 357 77 303 260 249 233 202 254 317 267 161 145 277 288 248 219 226 203 217 226 228 234 242 247 255 262 219 195 194 186 180 182 183 185 181 184 189 193 190 195 183 177 182 182 184 183 180 182 180 181 181 175 180 180 179 180 184 188 186 189 189 181 177 177 170 165 167 169 163 166 167 166 165 168 168 168 166 168 163 167 174 193 195 210 214 220 220 236 228 228 239 240 249 257 271
236 281 23 67 62 61 67 190 259 257 337 270 158 159 251 263 268 189 168 197 218 220 220 232 241 239 248 255 244 193 190 188 178 179 183 185 187 190 188 189 193 182 181 184 185 186 183 181 180 179 183 181 182 179 182 185 184 184 186 185 191 197 183 171 167 167 163 163 160 159 159 161 163 165 167 168 172 168 167 169 169 170 178 197 198 211 218 216 222 231 247 256 249 250 236 249 258
254 160 69 86 71 64 193 222 221 306 268 262 155 177 220 272 261 230 204 197 210 216 220 229 229 236 238 245 235 198 188 182 187 188 186 187 186 185 185 178 177 188 186 182 182 181 182 180 183 182 188 183 181 181 184 186 186 182 188 192 192 186 176 168 163 166 159 155 155 159 157 159 165 167 170 169 169 171 167 167 169 173 184 194 199 207 217 227 233 233 232 234 244 252 250 253 254
151 134 99 53 208 198 275 152 151 0 251 259 179 195 179 271 282 185 155 210 201 209 229 230 237 250 251 247 203 193 186 182 183 187 184 175 174 168 166 175 180 178 180 181 183 185 183 185 186 190 190 183 182 184 184 189 187 190 193 191 191 186 179 168 160 161 154 154 158 163 166 167 164 168 165 173 170 168 170 169 169 177 183 193 201 208 220 218 221 227 235 240 242 244 250 250 257
133 107 153 355 307 35 15 305 125 185 267 262 177 185 186 231 299 330 195 186 190 190 199 207 216 237 241 231 225 192 181 179 169 164 170 156 151 163 166 173 175 178 177 184 186 184 187 187 188 193 191 189 186 184 186 189 190 194 194 191 192 189 180 177 173 170 171 169 167 167 164 159 170 167 167 168 176 170 170 173 172 177 188 191 204 209 215 214 218 218 226 228 245 251 250 249 249
165 122 101 146 260 57 281 79 246 204 244 264 177 172 232 231 239 91 243 187 202 197 199 203 206 224 234 225 221 184 169 158 164 164 161 164 167 170 178 177 173 179 184 187 186 185 186 187 189 193 199 191 189 184 189 189 190 195 194 193 193 187 187 182 178 174 173 171 168 164 166 173 168 168 173 167 173 171 168 172 176 185 193 199 206 211 217 212 207 213 226 241 245 247 245 249 251
162 165 167 136 250 227 260 242 219 264 257 259 182 186 223 263 261 203 237 223 197 203 211 209 203 207 222 220 197 160 157 159 164 166 170 174 175 178 181 180 181 184 186 185 184 185 188 191 192 197 202 192 188 186 189 190 196 196 194 193 191 187 189 185 183 176 175 172 169 170 173 174 174 174 168 174 169 166 170 172 176 183 187 196 200 203 208 209 206 220 233 244 249 251 252 250 250
196 180 145 197 181 179 253 220 239 239 254 262 224 94 239 100 244 180 210 218 200 196 208 217 214 212 232 187 143 134 141 159 162 168 175 180 183 180 183 186 184 185 185 184 185 190 187 194 195 200 198 196 190 191 188 194 196 195 194 193 189 189 188 186 185 178 171 169 170 168 170 167 166 168 168 165 162 167 167 168 175 178 187 199 209 219 219 214 214 225 235 244 252 249 250 251 251
204 172 173 318 228 182 232 243 260 284 335 298 199 216 220 227 24 205 209 212 218 204 205 208 214 229 225 137 162 171 172 168 171 172 178 185 184 182 185 189 189 185 185 186 189 189 192 199 198 200 201 195 192 190 195 195 195 192 192 191 191 186 185 179 176 172 171 169 168 167 166 163 159 153 155 151 155 154 160 164 168 179 185 199 208 209 213 211 214 226 245 247 255 248 251 247 250
221 130 198 209 86 175 257 305 277 292 301 262 229 273 262 304 264 233 228 212 222 219 216 208 211 226 226 184 193 190 184 177 178 178 183 184 181 191 194 190 188 187 187 193 193 191 196 194 194 198 200 197 196 196 194 192 191 189 196 191 185 185 184 182 179 174 167 163 159 160 159 160 151 150 152 150 149 151 156 159 174 186 195 200 206 208 205 207 211 227 237 242 250 248 248 252 252
96 210 237 12 15 117 158 232 338 232 240 275 269 260 285 308 289 137 194 205 209 205 205 202 207 223 225 211 212 203 194 191 185 187 190 186 188 192 192 194 194 193 194 196 198 198 199 195 194 194 193 199 202 193 191 190 191 194 190 190 190 187 184 180 174 171 165 158 159 155 151 153 162 155 148 147 146 153 157 169 176 190 196 201 205 207 204 211 215 230 233 241 245 245 251 252 250
153 193 321 128 244 268 242 116 254 266 258 270 278 274 271 256 258 281 226 199 206 211 205 201 209 223 226 226 226 223 192 166 176 187 187 193 196 193 193 199 201 201 203 201 197 192 195 202 202 196 197 203 198 191 190 191 191 193 191 190 187 183 180 177 173 166 163 166 165 162 160 156 144 147 146 147 154 159 164 177 178 196 202 209 208 209 206 212 216 228 235 245 246 243 246 252 247
148 28 335 192 82 222 150 193 202 171 263 294 281 291 270 254 246 257 216 200 196 196 196 199 208 215 222 219 222 211 181 189 193 197 200 196 196 198 196 196 197 202 199 195 192 190 198 200 194 202 204 197 195 194 190 191 193 186 187 182 186 183 178 175 172 167 169 170 166 159 155 153 159 151 154 152 159 163 169 182 190 195 205 202 205 208 202 212 219 229 236 245 248 243 251 254 257
228 232 264 254 198 232 100 297 200 198 223 224 271 289 275 76 235 204 189 188 192 187 197 204 208 218 219 213 210 206 190 190 203 202 204 205 205 203 204 205 207 202 194 187 187 195 200 189 198 199 197 195 196 199 188 194 182 187 181 185 183 178 177 171 166 169 166 166 161 159 160 157 146 161 154 157 163 169 176 182 187 194 195 201 203 213 206 213 224 237 240 244 248 248 254 256 260
193 189 212 204 177 192 215 251 221 229 202 231 245 253 272 239 56 100 144 188 171 187 194 212 220 225 222 203 213 199 205 224 211 203 204 209 209 205 209 202 186 182 197 199 202 191 188 197 200 196 196 197 198 194 193 187 184 183 184 183 180 175 172 169 168 167 166 164 163 162 159 154 161 160 154 160 167 169 175 181 188 199 199 201 210 212 224 223 237 242 247 242 248 250 252 258 259